Regional Weather Roundup
Issued by NWS

Home | Current Version | Previous Version | Graphics & Text | Print | Product List | Glossary Off
Versions: 1 2 3 4 5 6 7 8 9 10 11 12 13 14 15 16 17 18 19 20 21 22 23 24 25 26 27 28 29 30 31 32 33 34 35 36 37 38 39 40 41 42 43 44 45 46 47 48 49 50

000
ASUS43 KTOP 220959
RWRKS

WEATHER ROUNDUP FOR KANSAS
NATIONAL WEATHER SERVICE GOODLAND KS
500 AM CDT FRI AUG 22 2014

NOTE:  "FAIR" INDICATES FEW OR NO CLOUDS BELOW 12,000 FEET WITH NO
SIGNIFICANT WEATHER AND/OR OBSTRUCTIONS TO VISIBILITY.

KSZ001>006-013>018-027>032-041>047-221100-
NORTHWEST KANSAS

CITY           SKY/WX    TMP DP  RH WIND       PRES   REMARKS
GOODLAND       PTCLDY    63  59  87 N5        30.00S
HAYS           PTCLDY    79  64  61 S12       29.88S
HILL CITY      CLEAR     69  66  90 CALM      29.88F
RUSSELL        MOCLDY    79  66  64 S9        29.86S
$$

KSZ061>065-074>080-084>089-221100-
SOUTHWEST KANSAS

CITY           SKY/WX    TMP DP  RH WIND       PRES   REMARKS
DODGE CITY     CLOUDY    76  63  64 S7        29.93S
ELKHART          N/A     70  59  68 W5          N/A
GARDEN CITY    PTCLDY    70  62  76 SE6       29.93F
GREAT BEND     CLOUDY    81  66  61 S13       29.88R
LIBERAL        MOCLDY    75  61  60 SE9       29.95S
$$

KSZ066>073-081>083-090>101-221100-
SOUTHEAST KANSAS

CITY           SKY/WX    TMP DP  RH WIND       PRES   REMARKS
CHANUTE        CLEAR     77  70  79 S12       29.94S
COFFEYVILLE    CLEAR     79  71  76 S9        29.94R
HUTCHINSON     CLEAR     80  69  69 S10       29.89S
NEWTON         CLEAR     81  63  54 S15       29.94R
PARSONS        CLEAR     77  70  79 S6        29.96R
WICHITA INTL   PTCLDY    78  68  71 S12       29.90S
WICHITA JABRA  CLEAR     79  67  66 S13       29.90S
WINFIELD       CLEAR     80  66  62 S14       29.92S
$$

KSZ007>012-019>026-033>040-048>060-102>105-221100-
NORTHEAST KANSAS

CITY           SKY/WX    TMP DP  RH WIND       PRES   REMARKS
CONCORDIA      CLEAR     78  72  81 S15       29.85F
EMPORIA        PTCLDY    76  70  82 S7        29.92R
LAWRENCE       MOCLDY    79  71  76 SE6       29.91F
MANHATTAN      PTCLDY    81  70  69 S7        29.86S
OLATHE IND     MOCLDY    77  72  84 S9        29.93F
OLATHE EXE     MOCLDY    77  71  82 S6        29.93S
SALINA         MOCLDY    82  70  66 S10       29.86F
TOPEKA BILLARD MOCLDY    80  73  79 SE5       29.90S
TOPEKA FORBES  MOCLDY    80  70  71 S8        29.90S
$$



USA.gov is the U.S. government's official web portal to all federal, state and local government web resources and services.